Weather observations for the past three days for
Fergus Falls Municipal Airport-Einar Mickel
Imperial (Metric)
Date Time (cdt) Wind (mph) Vis. (mi.) Weather Sky Cond. Temperature (ºF) Relative Humidity Wind Chill (°F) Heat Index (°F) Pressure Precipitation (in)
Air Dwpt 6 hour altimeter (in) sea level (mb) 1 hr 3 hr 6 hr
Max. Min.
18 09:55 E 15 G 22 10.00 Overcast OVC060 66.2 66.2 100% 29.51 0.0 0.05
18 09:35 E 21 10.00 Overcast and Breezy OVC060 66.2 66.2 100% 29.51 0.0
18 09:15 E 17 G 28 10.00 Overcast OVC060 66.2 66.2 100% 29.51 0.0
18 08:55 E 21 G 32 10.00 Overcast and Breezy OVC065 66.2 66.2 100% 29.51 0.0 0.07
18 08:35 E 23 G 36 10.00 Overcast and Breezy OVC070 66.2 66.2 100% 29.51 0.0
18 08:15 E 24 G 33 10.00 Overcast and Breezy OVC075 66.2 66.2 100% 29.5 0.0
18 07:55 E 20 G 28 10.00 Overcast BKN080 OVC090 64.4 64.4 100% 29.53 0.0 0.09
18 07:35 E 20 G 29 10.00 Overcast OVC090 64.4 64.4 100% 29.52 0.0
18 07:15 E 17 10.00 Rain FEW055 FEW070 BKN110 64.4 64.4 100% 29.53 0.0
18 06:55 E 14 G 20 10.00 Mostly Cloudy FEW003 SCT070 BKN110 64.4 64.4 100% 29.54 0.0 0.11
18 06:35 E 9 1.00 Light Rain Fog/Mist BKN003 BKN019 OVC065 64.4 64.4 100% 29.59 0.0
18 06:15 NE 8 G 14 9.00 Overcast FEW005 FEW020 OVC055 64.4 64.4 100% 29.56 0.0
18 05:55 NE 10 3.00 Rain Fog/Mist FEW004 FEW013 OVC050 64.4 64.4 100% 29.51 0.0 0.2
18 05:35 NE 7 G 16 8.00 Rain FEW005 SCT022 BKN042 64.4 64.4 100% 29.52 0.0
18 05:15 N 14 G 22 2.50 Rain Fog/Mist BKN004 BKN022 OVC070 62.6 62.6 100% 29.5 0.0
18 04:55 N 14 G 26 0.25 Heavy Rain Fog OVC003 64.4 64.4 100% 29.55 0.0 0.32
18 04:35 S 22 G 33 10.00 Overcast and Breezy SCT036 BKN055 OVC090 73.4 71.6 94% 29.42 0.0
18 04:15 SE 29 G 38 10.00 Mostly Cloudy and Windy FEW065 BKN080 BKN090 71.6 69.8 94% 29.42 0.0
18 03:55 SE 25 G 35 10.00 Mostly Cloudy and Breezy FEW025 FEW075 BKN090 71.6 69.8 94% 29.42 0.0
18 03:35 SE 28 G 38 10.00 Overcast and Windy SCT026 SCT035 OVC095 71.6 69.8 94% 29.41 0.0
18 03:15 SE 31 G 44 10.00 Overcast and Windy SCT024 BKN029 OVC034 71.6 69.8 94% 29.42 0.0
18 02:55 SE 26 G 37 10.00 Overcast and Windy SCT024 BKN032 OVC065 71.6 69.8 94% 29.46 0.0
18 02:35 SE 30 G 40 10.00 Overcast and Windy FEW029 FEW038 OVC065 71.6 69.8 94% 29.44 0.0
18 02:15 SE 25 G 36 10.00 Overcast and Breezy SCT031 SCT043 OVC060 71.6 69.8 94% 29.46 0.0
18 01:55 SE 29 10.00 Overcast and Windy FEW029 BKN035 OVC042 69.8 69.8 100% 29.44 0.0
18 01:35 SE 24 G 37 10.00 Overcast and Breezy OVC038 68 68 100% 29.44 0.0
18 01:15 SE 25 G 32 10.00 Overcast and Breezy BKN034 OVC043 66.2 66.2 100% 29.45 0.0
18 00:55 SE 21 G 35 9.00 Overcast and Breezy BKN033 OVC038 66.2 66.2 100% 29.49 0.0 0.03
18 00:35 SE 21 G 31 10.00 Overcast and Breezy OVC036 66.2 66.2 100% 29.51 0.0
18 00:15 SE 24 G 31 10.00 Overcast and Breezy FEW014 OVC036 64.4 64.4 100% 29.53 0.0
17 23:55 E 18 G 28 4.00 Rain Fog/Mist FEW004 BKN039 OVC070 64.4 64.4 100% 29.55 0.0 0.04
17 23:35 E 15 G 22 9.00 Light Rain FEW004 BKN048 OVC070 64.4 64.4 100% 29.58 0.0
17 23:15 E 16 G 24 7.00 Light Rain FEW005 SCT035 BKN042 64.4 64.4 100% 29.6 0.0
17 22:55 E 17 10.00 Light Rain FEW004 SCT035 BKN050 64.4 64.4 100% 29.62 0.0
17 22:35 E 16 G 23 10.00 Overcast BKN049 OVC060 66.2 62.6 88% 29.63 0.0
17 22:15 E 15 10.00 Overcast BKN050 OVC060 66.2 62.6 88% 29.65 0.0
17 21:55 E 16 10.00 Overcast OVC060 66.2 62.6 88% 29.67 0.0
17 21:35 E 14 10.00 Overcast SCT060 OVC070 66.2 62.6 88% 29.68 0.0
17 21:15 E 12 G 17 10.00 Overcast BKN070 OVC100 66.2 62.6 88% 29.67 0.0
17 20:55 SE 12 10.00 Mostly Cloudy BKN070 BKN110 66.2 62.6 88% 29.67 0.0
17 20:35 E 10 G 18 10.00 A Few Clouds FEW023 66.2 62.6 88% 29.68 0.0
17 20:15 SE 15 G 23 10.00 Mostly Cloudy BKN023 66.2 62.6 88% 29.7 0.0
17 19:55 SE 13 10.00 Partly Cloudy SCT022 68 62.6 83% 29.71 0.0
17 19:35 SE 13 10.00 Mostly Cloudy BKN024 68 62.6 83% 29.71 0.0
17 19:15 SE 13 10.00 Overcast OVC024 68 62.6 83% 29.72 0.0
17 18:55 SE 14 G 21 10.00 Overcast OVC027 68 62.6 83% 29.75 0.0
17 18:35 SE 14 10.00 Overcast OVC029 68 62.6 83% 29.75 0.0
17 18:15 SE 12 10.00 Mostly Cloudy BKN030 BKN037 BKN050 68 60.8 78% 29.74 0.0
17 17:55 E 13 10.00 Mostly Cloudy BKN030 BKN037 BKN048 69.8 59 69% 29.74 0.0
17 17:35 E 10 10.00 Overcast OVC030 66.2 55.4 68% 29.75 0.0
17 17:15 SE 12 10.00 Overcast BKN031 OVC042 68 55.4 64% 29.76 0.0
17 16:55 SE 14 10.00 Overcast BKN030 OVC047 66.2 55.4 68% 29.75 0.0
17 16:35 E 12 10.00 Overcast BKN033 OVC049 68 55.4 64% 29.75 0.0
17 16:15 SE 12 10.00 Overcast OVC033 68 55.4 64% 29.76 0.0
17 15:55 E 9 10.00 Overcast BKN034 OVC040 68 55.4 64% 29.77 0.0
17 15:35 E 8 10.00 Overcast BKN035 BKN041 OVC055 68 55.4 64% 29.77 0.0
17 15:15 SE 9 10.00 Overcast SCT034 BKN040 OVC049 68 55.4 64% 29.78 0.0
17 14:55 SE 12 10.00 Overcast BKN039 OVC047 66.2 55.4 68% 29.78 0.0
17 14:35 E 12 G 20 10.00 Overcast BKN039 OVC050 68 51.8 56% 29.78 0.0
17 14:15 E 12 10.00 Overcast BKN050 OVC055 68 51.8 56% 29.78 0.0
17 13:55 SE 10 G 16 10.00 Mostly Cloudy FEW047 BKN055 69.8 55.4 60% 29.79 0.0
17 13:35 SE 8 10.00 Partly Cloudy SCT048 SCT055 SCT090 69.8 55.4 60% 29.81 0.0
17 13:15 SE 7 10.00 Mostly Cloudy SCT080 BKN090 69.8 53.6 57% 29.83 0.0
17 12:55 SE 8 10.00 Overcast OVC075 68 53.6 60% 29.82 0.0
17 12:35 SE 7 10.00 Overcast OVC070 68 57.2 69% 29.82 0.0
17 12:15 E 6 10.00 Partly Cloudy SCT080 68 57.2 69% 29.82 0.0
17 11:55 SE 5 10.00 Fair CLR 68 55.4 64% 29.81 0.0
17 11:35 SE 5 10.00 Fair CLR 68 59 73% 29.82 0.0
17 11:15 Calm 10.00 Fair CLR 66.2 57.2 73% 29.82 0.0
17 10:55 Calm 10.00 Fair CLR 66.2 57.2 73% 29.83 0.0
17 10:35 Calm 10.00 Fair CLR 66.2 55.4 68% 29.83 0.0
17 10:15 Calm 10.00 Fair CLR 64.4 57.2 78% 29.83 0.0
17 09:55 S 5 10.00 Fair CLR 64.4 57.2 78% 29.84 0.0
17 09:35 S 7 10.00 Fair CLR 64.4 57.2 78% 29.84 0.0
17 09:15 S 8 10.00 Fair CLR 64.4 57.2 78% 29.85 0.0
17 08:55 SE 7 10.00 Fair CLR 64.4 57.2 78% 29.85 0.0
17 08:35 Calm 10.00 Fair CLR 64.4 55.4 73% 29.85 0.0
17 08:15 NE 6 10.00 Fair CLR 62.6 55.4 77% 29.85 0.0
17 07:55 NE 5 10.00 Fair CLR 62.6 55.4 77% 29.86 0.0
17 07:35 NE 5 10.00 Fair CLR 60.8 53.6 77% 29.87 0.0
17 07:15 NE 7 10.00 Fair CLR 59 53.6 82% 29.87 0.0
17 06:55 E 6 10.00 Fair CLR 57.2 53.6 88% 29.86 0.0
17 06:35 SE 5 10.00 Fair CLR 57.2 55.4 94% 29.87 0.0
17 06:15 SE 6 10.00 Fair CLR 59 53.6 82% 29.86 0.0
17 05:55 Calm 10.00 Fair CLR 57.2 53.6 88% 29.84 0.0
17 05:35 E 6 10.00 Partly Cloudy FEW060 SCT095 SCT120 57.2 53.6 88% 29.82 0.0
17 05:15 N 5 10.00 Mostly Cloudy FEW048 BKN060 BKN075 59 53.6 82% 29.82 0.0
17 04:55 N 6 10.00 Mostly Cloudy FEW045 SCT055 BKN095 57.2 53.6 88% 29.82 0.0
17 04:35 NE 3 10.00 A Few Clouds FEW100 FEW120 57.2 53.6 88% 29.83 0.0
17 04:15 N 7 10.00 Fair CLR 57.2 51.8 82% 29.81 0.0
17 03:55 N 7 10.00 Fair CLR 57.2 51.8 82% 29.82 0.0
17 03:35 N 7 10.00 Fair CLR 57.2 51.8 82% 29.82 0.0
17 03:15 N 5 10.00 Fair CLR 57.2 51.8 82% 29.81 0.0
17 02:55 NE 6 10.00 Fair CLR 57.2 53.6 88% 29.78 0.0
17 02:35 E 5 10.00 Fair CLR 57.2 51.8 82% 29.79 0.0
17 02:15 E 6 10.00 Fair CLR 55.4 53.6 94% 29.78 0.0
17 01:55 E 6 10.00 Fair CLR 57.2 48.2 72% 29.78 0.0
17 01:35 E 7 10.00 Fair CLR 57.2 48.2 72% 29.78 0.0
17 01:15 E 6 10.00 Fair CLR 57.2 50 77% 29.79 0.0
17 00:55 E 6 10.00 Fair CLR 57.2 48.2 72% 29.79 0.0
17 00:35 E 5 10.00 Fair CLR 57.2 48.2 72% 29.8 0.0
17 00:15 NE 5 10.00 Fair CLR 59 46.4 63% 29.8 0.0
16 23:55 NE 5 10.00 Fair CLR 60.8 42.8 52% 29.8 0.0
16 23:35 N 6 10.00 Fair CLR 62.6 44.6 52% 29.8 0.0
16 23:15 N 6 10.00 Fair CLR 62.6 44.6 52% 29.8 0.0
16 22:55 N 6 10.00 Fair CLR 64.4 42.8 46% 29.81 0.0
16 22:35 N 5 10.00 Fair CLR 64.4 42.8 46% 29.81 0.0
16 22:15 NW 6 10.00 Fair CLR 64.4 44.6 49% 29.81 0.0
16 21:55 N 8 10.00 Fair CLR 64.4 44.6 49% 29.79 0.0
16 21:35 NW 9 10.00 Fair CLR 66.2 42.8 43% 29.77 0.0
16 21:15 NW 13 10.00 Fair CLR 69.8 41 35% 29.76 0.0
16 20:55 NW 10 10.00 Fair CLR 69.8 41 35% 29.75 0.0
16 20:35 NW 13 G 20 10.00 Fair CLR 71.6 41 33% 29.73 0.0
16 20:15 NW 15 G 22 10.00 Fair CLR 73.4 39.2 29% 29.72 0.0
16 19:55 N 13 G 21 10.00 Fair CLR 75.2 46.4 36% 77 29.71 0.0
16 19:35 N 12 G 17 10.00 Fair CLR 75.2 48.2 39% 77 29.71 0.0
16 19:15 NW 14 G 23 10.00 Fair CLR 75.2 44.6 34% 77 29.69 0.0
16 18:55 NW 14 G 21 10.00 Fair CLR 75.2 50 41% 78 29.69 0.0
16 18:35 NW 12 10.00 Fair CLR 75.2 50 41% 78 29.7 0.0
16 18:15 NW 15 G 22 10.00 Fair CLR 75.2 44.6 34% 77 29.7 0.0
16 17:55 NW 16 10.00 Fair CLR 75.2 44.6 34% 77 29.67 0.0
16 17:35 NW 17 10.00 Fair CLR 75.2 50 41% 78 29.66 0.0
16 17:15 N 14 10.00 Fair CLR 77 48.2 36% 78 29.66 0.0
16 16:55 NW 15 G 24 10.00 Fair CLR 77 50 39% 78 29.67 0.0
16 16:35 NW 18 10.00 A Few Clouds FEW049 FEW060 78.8 55.4 45% 79 29.68 0.0
16 16:15 NW 17 G 25 10.00 Partly Cloudy SCT047 78.8 62.6 58% 80 29.67 0.0
16 15:55 NW 18 10.00 Partly Cloudy SCT042 78.8 66.2 65% 81 29.65 0.0
16 15:35 NW 17 G 24 10.00 Partly Cloudy SCT040 78.8 68 70% 81 29.64 0.0
16 15:15 NW 20 G 25 10.00 A Few Clouds FEW034 FEW040 78.8 68 70% 81 29.62 0.0
16 14:55 NW 21 10.00 Partly Cloudy and Breezy SCT033 80.6 69.8 70% 84 29.62 0.0
16 14:35 NW 15 10.00 Mostly Cloudy SCT032 BKN037 78.8 71.6 79% 82 29.61 0.0
16 14:15 N 15 G 23 10.00 Partly Cloudy FEW030 SCT037 80.6 71.6 74% 85 29.61 0.0
16 13:55 NW 21 10.00 Partly Cloudy and Breezy SCT035 80.6 69.8 70% 84 29.6 0.0
16 13:35 NW 14 G 21 10.00 Mostly Cloudy BKN033 BKN055 78.8 69.8 74% 81 29.6 0.0
16 13:15 NW 10 G 16 10.00 Mostly Cloudy FEW026 SCT032 BKN046 77 71.6 83% 78 29.6 0.0
16 12:55 NW 12 10.00 Overcast FEW025 BKN033 OVC045 73.4 71.6 94% 29.61 0.0
16 12:35 NW 10 10.00 Overcast OVC025 73.4 71.6 94% 29.6 0.0
16 12:15 NW 14 G 22 10.00 Overcast OVC025 73.4 71.6 94% 29.59 0.0
16 11:55 NW 16 G 22 10.00 Overcast OVC027 73.4 69.8 89% 29.58 0.0
16 11:35 W 7 10.00 Overcast BKN027 OVC031 75.2 71.6 89% 75 29.57 0.0
16 11:15 W 10 10.00 Mostly Cloudy BKN025 BKN031 75.2 71.6 89% 75 29.56 0.0
16 10:55 SE 13 10.00 Partly Cloudy SCT021 77 71.6 83% 78 29.53 0.0
16 10:35 SE 9 10.00 Mostly Cloudy BKN022 75.2 71.6 89% 75 29.53 0.0
16 10:15 S 9 10.00 Overcast OVC022 73.4 71.6 94% 29.54 0.0
16 09:55 S 8 10.00 Overcast OVC020 73.4 69.8 89% 29.55 0.0
16 09:35 S 9 10.00 Overcast OVC018 71.6 69.8 94% 29.55 0.0
16 09:15 SE 12 G 18 10.00 Overcast BKN018 OVC025 71.6 69.8 94% 29.52 0.0
16 08:55 SE 10 G 16 10.00 Overcast BKN016 OVC028 73.4 69.8 89% 29.53 0.0
16 08:35 SE 12 G 18 10.00 Partly Cloudy SCT015 SCT031 71.6 69.8 94% 29.54 0.0
16 08:15 SE 15 10.00 Fair CLR 71.6 69.8 94% 29.54 0.0
16 07:55 SE 12 10.00 Fair CLR 69.8 69.8 100% 29.53 0.0
16 07:35 S 7 10.00 Partly Cloudy SCT055 SCT065 69.8 69.8 100% 29.56 0.0
16 07:15 Vrbl 7 9.00 Mostly Cloudy SCT047 BKN055 69.8 69.8 100% 29.56 0.0
16 06:55 S 7 10.00 Partly Cloudy FEW012 SCT045 69.8 69.8 100% 29.57 0.0
16 06:35 S 16 G 22 10.00 A Few Clouds FEW007 68 68 100% 29.53 0.0
16 06:15 SE 17 G 25 8.00 A Few Clouds FEW007 68 68 100% 29.51 0.0
16 05:55 SE 15 7.00 Partly Cloudy SCT007 68 68 100% 29.5 0.0
16 05:35 SE 17 G 23 6.00 Fog/Mist FEW006 66.2 66.2 100% 29.49 0.0
16 05:15 SE 15 G 22 7.00 Partly Cloudy SCT008 66.2 66.2 100% 29.51 0.0
16 04:55 SE 14 8.00 A Few Clouds FEW008 66.2 66.2 100% 29.53 0.0
16 04:35 E 9 8.00 A Few Clouds FEW007 FEW014 66.2 66.2 100% 29.56 0.0
16 04:15 SE 10 9.00 Mostly Cloudy BKN006 BKN010 66.2 66.2 100% 29.56 0.0
16 03:55 SE 13 G 21 10.00 Overcast OVC006 66.2 66.2 100% 29.57 0.0
16 03:35 SE 12 G 17 10.00 Mostly Cloudy SCT009 SCT013 BKN019 66.2 66.2 100% 29.57 0.0
16 03:15 SE 13 G 18 10.00 Partly Cloudy FEW011 SCT036 66.2 66.2 100% 29.56 0.0
16 02:55 SE 15 G 23 10.00 Overcast OVC034 66.2 66.2 100% 29.56 0.0
16 02:35 SE 13 G 20 10.00 Overcast BKN023 BKN029 OVC033 66.2 66.2 100% 29.58 0.0
16 02:15 SE 12 G 20 10.00 Overcast BKN022 OVC031 66.2 66.2 100% 29.57 0.0
16 01:55 SE 14 G 20 10.00 Overcast OVC029 66.2 66.2 100% 29.58 0.0
16 01:35 SE 14 G 23 10.00 Mostly Cloudy BKN025 64.4 64.4 100% 29.6 0.0
16 01:15 SE 17 10.00 Fair CLR 64.4 64.4 100% 29.61 0.0
16 00:55 SE 14 G 21 10.00 Fair CLR 64.4 64.4 100% 29.63 0.0
16 00:35 SE 14 10.00 Fair CLR 64.4 64.4 100% 29.65 0.0
16 00:15 SE 13 10.00 Fair CLR 64.4 64.4 100% 29.65 0.0
15 23:55 SE 15 G 23 10.00 Fair CLR 64.4 64.4 100% 29.65 0.0
15 23:35 SE 14 G 21 10.00 Fair CLR 66.2 66.2 100% 29.65 0.0
15 23:15 SE 15 10.00 A Few Clouds FEW011 FEW022 FEW027 66.2 66.2 100% 29.65 0.0
15 22:55 SE 15 G 22 10.00 Overcast FEW011 BKN023 OVC027 66.2 66.2 100% 29.65 0.0
15 22:35 SE 16 10.00 Mostly Cloudy SCT010 BKN027 66.2 66.2 100% 29.66 0.0
15 22:15 SE 12 G 18 10.00 Mostly Cloudy BKN010 66.2 66.2 100% 29.65 0.0
15 21:55 SE 12 10.00 Partly Cloudy SCT011 66.2 66.2 100% 29.66 0.0
15 21:35 SE 12 10.00 Mostly Cloudy BKN012 BKN024 66.2 66.2 100% 29.66 0.0
15 21:15 SE 12 G 21 10.00 Overcast OVC011 68 68 100% 29.67 0.0
15 20:55 SE 14 G 21 10.00 Overcast OVC010 68 68 100% 29.67 0.0
15 20:35 SE 14 G 20 10.00 Overcast OVC011 68 68 100% 29.67 0.0
15 20:15 SE 14 G 21 10.00 Overcast OVC011 68 68 100% 29.67 0.0
15 19:55 SE 16 G 22 10.00 Overcast OVC011 68 68 100% 29.69 0.0
15 19:35 SE 20 G 26 10.00 Overcast BKN011 OVC017 69.8 68 94% 29.69 0.0
15 19:15 SE 13 G 23 10.00 Overcast BKN012 BKN017 OVC032 68 68 100% 29.7 0.0
15 18:55 SE 21 10.00 Overcast and Breezy BKN014 OVC038 68 66.2 94% 29.71 0.0
15 18:35 SE 16 G 22 10.00 Overcast BKN012 OVC016 68 66.2 94% 29.71 0.0
15 18:15 SE 15 G 22 10.00 Overcast OVC011 68 66.2 94% 29.73 0.0
15 17:55 SE 15 G 26 10.00 Overcast OVC013 68 66.2 94% 29.74 0.0
15 17:35 SE 16 G 23 10.00 Overcast OVC014 68 66.2 94% 29.74 0.0
15 17:15 SE 20 G 26 10.00 Overcast OVC015 68 66.2 94% 29.74 0.0
15 16:55 SE 17 G 24 10.00 Overcast OVC016 68 66.2 94% 29.75 0.0
15 16:35 SE 20 10.00 Overcast BKN020 BKN028 OVC038 69.8 66.2 88% 29.75 0.0
15 16:15 SE 21 G 29 10.00 Overcast and Breezy FEW021 BKN027 OVC037 69.8 66.2 88% 29.75 0.0
15 15:55 SE 20 G 28 10.00 Mostly Cloudy BKN027 BKN035 69.8 66.2 88% 29.75 0.0
15 15:35 SE 21 G 28 10.00 A Few Clouds and Breezy FEW032 71.6 64.4 78% 29.76 0.0
15 15:15 SE 18 G 25 10.00 Fair CLR 71.6 64.4 78% 29.76 0.0
15 14:55 SE 18 G 26 10.00 Fair CLR 71.6 62.6 73% 29.77 0.0
15 14:35 SE 21 10.00 Fair and Breezy CLR 71.6 62.6 73% 29.78 0.0
15 14:15 S 21 10.00 Fair and Breezy CLR 71.6 60.8 69% 29.79 0.0
15 13:55 SE 22 G 28 10.00 Fair and Breezy CLR 73.4 60.8 65% 29.8 0.0
15 13:35 S 18 G 29 10.00 Fair CLR 73.4 60.8 65% 29.8 0.0
15 13:15 S 22 G 29 10.00 Fair and Breezy CLR 73.4 59 61% 29.8 0.0
15 12:55 S 22 G 32 10.00 Fair and Breezy CLR 75.2 59 57% 78 29.8 0.0
15 12:35 S 22 G 31 10.00 A Few Clouds and Breezy FEW080 75.2 59 57% 78 29.81 0.0
15 12:15 S 21 G 29 10.00 Mostly Cloudy and Breezy BKN075 75.2 59 57% 78 29.82 0.0
15 11:55 S 20 G 32 10.00 Partly Cloudy SCT075 75.2 57.2 54% 78 29.83 0.0
15 11:35 S 22 G 31 10.00 Fair and Breezy CLR 75.2 59 57% 78 29.83 0.0
15 11:15 S 22 10.00 Fair and Breezy CLR 75.2 59 57% 78 29.84 0.0
15 10:55 S 20 G 28 10.00 Fair CLR 73.4 57.2 57% 29.84 0.0
15 10:35 S 21 G 29 10.00 Fair and Breezy CLR 73.4 57.2 57% 29.84 0.0
15 10:15 S 26 G 37 10.00 Fair and Windy CLR 71.6 57.2 61% 29.85 0.0
Date Time (cdt) Wind (mph) Vis. (mi.) Weather Sky Cond. Air Dwpt Max. Min. Relative Humidity Wind Chill (°F) Heat Index (°F) altimeter (in) sea level (mb) 1 hr 3 hr 6 hr
6 hour
Temperature (ºF) Pressure Precipitation (in)